• In Hungary
  • List of Countries
  • For 7 days
  • Water Temperature
  • Satellite Maps
  • Weather Map
  • News
  • Weather Widgets
  • user-avatar
    Login

    Hourly Weather Pryyatne Svidannya

    Today, 15 October, Monday

    Time Temperature Precipitation Wind Pressure Humidity
    00:00 +12°C° 0 mm 4 mps 746 mmHg 58%
    01:00 +12°C° 0 mm 4 mps 746 mmHg 59%
    02:00 +11°C° 0 mm 4 mps 746 mmHg 62%
    03:00 +11°C° 0 mm 4 mps 746 mmHg 63%
    04:00 +11°C° 0 mm 4 mps 746 mmHg 64%
    05:00 +11°C° 0 mm 4 mps 746 mmHg 65%
    06:00 +13°C° 0 mm 4 mps 746 mmHg 62%
    07:00 +14°C° 0 mm 5 mps 746 mmHg 58%
    08:00 +16°C° 0 mm 5 mps 746 mmHg 52%
    09:00 +17°C° 0 mm 6 mps 746 mmHg 46%
    10:00 +20°C° 0 mm 6 mps 746 mmHg 40%
    11:00 +22°C° 0 mm 6 mps 746 mmHg 34%
    12:00 +22°C° 0 mm 6 mps 746 mmHg 34%
    13:00 +22°C° 0 mm 6 mps 746 mmHg 34%
    14:00 +22°C° 0 mm 6 mps 746 mmHg 34%
    15:00 +20°C° 0 mm 6 mps 746 mmHg 39%
    16:00 +19°C° 0 mm 5 mps 746 mmHg 45%
    17:00 +16°C° 0 mm 5 mps 745 mmHg 51%
    18:00 +15°C° 0 mm 5 mps 745 mmHg 54%
    19:00 +15°C° 0 mm 5 mps 745 mmHg 58%
    20:00 +14°C° 0 mm 5 mps 745 mmHg 61%
    21:00 +14°C° 0 mm 5 mps 745 mmHg 63%
    22:00 +14°C° 0 mm 4 mps 745 mmHg 64%
    23:00 +14°C° 0 mm 4 mps 745 mmHg 65%

    Tomorrow, 16 October, Tuesday

    Time Temperature Precipitation Wind Pressure Humidity
    00:00 +14°C° 0 mm 4 mps 745 mmHg 65%
    01:00 +14°C° 0 mm 4 mps 745 mmHg 65%
    02:00 +14°C° 0 mm 4 mps 745 mmHg 65%
    03:00 +14°C° 0 mm 4 mps 745 mmHg 67%
    04:00 +14°C° 0 mm 4 mps 745 mmHg 68%
    05:00 +13°C° 0 mm 5 mps 744 mmHg 69%
    06:00 +15°C° 0 mm 5 mps 745 mmHg 66%
    07:00 +16°C° 0 mm 6 mps 745 mmHg 62%
    08:00 +17°C° 0 mm 6 mps 745 mmHg 58%
    09:00 +19°C° 0 mm 6 mps 745 mmHg 54%
    10:00 +21°C° 0 mm 6 mps 745 mmHg 49%
    11:00 +22°C° 0 mm 6 mps 745 mmHg 44%
    12:00 +23°C° 0 mm 6 mps 745 mmHg 44%
    13:00 +23°C° 0 mm 6 mps 745 mmHg 44%
    14:00 +23°C° 0 mm 6 mps 745 mmHg 44%
    15:00 +21°C° 0 mm 5 mps 745 mmHg 50%
    16:00 +20°C° 0 mm 5 mps 744 mmHg 55%
    17:00 +17°C° 0 mm 5 mps 744 mmHg 61%
    18:00 +17°C° 0 mm 5 mps 744 mmHg 65%
    19:00 +16°C° 0 mm 5 mps 744 mmHg 70%
    20:00 +15°C° 0 mm 4 mps 744 mmHg 74%
    21:00 +15°C° 0 mm 4 mps 744 mmHg 76%
    22:00 +15°C° 0 mm 4 mps 744 mmHg 77%
    23:00 +15°C° 0 mm 4 mps 744 mmHg 79%

    Day after tomorrow, 17 October, Wednesday

    Time Temperature Precipitation Wind Pressure Humidity
    00:00 +14°C° 0 mm 4 mps 744 mmHg 80%
    01:00 +14°C° 0 mm 4 mps 744 mmHg 81%
    02:00 +14°C° 0 mm 4 mps 744 mmHg 82%
    03:00 +14°C° 0 mm 4 mps 743 mmHg 83%
    04:00 +13°C° 0 mm 4 mps 743 mmHg 84%
    05:00 +13°C° 0 mm 5 mps 743 mmHg 84%
    06:00 +14°C° 0 mm 5 mps 743 mmHg 79%
    07:00 +15°C° 0 mm 5 mps 743 mmHg 74%
    08:00 +16°C° 0 mm 6 mps 743 mmHg 69%
    09:00 +19°C° 0 mm 6 mps 743 mmHg 63%
    10:00 +20°C° 0 mm 5 mps 743 mmHg 56%
    11:00 +22°C° 0 mm 5 mps 743 mmHg 49%
    12:00 +22°C° 0 mm 5 mps 743 mmHg 48%
    13:00 +22°C° 0 mm 5 mps 743 mmHg 48%
    14:00 +22°C° 0 mm 5 mps 743 mmHg 47%
    15:00 +21°C° 0 mm 5 mps 743 mmHg 52%
    16:00 +19°C° 0 mm 5 mps 742 mmHg 58%
    17:00 +17°C° 0 mm 5 mps 742 mmHg 63%
    18:00 +16°C° 0 mm 5 mps 742 mmHg 66%
    19:00 +16°C° 0 mm 5 mps 742 mmHg 68%
    20:00 +15°C° 0 mm 5 mps 743 mmHg 71%
    21:00 +15°C° 0 mm 5 mps 742 mmHg 71%
    22:00 +15°C° 0 mm 4 mps 742 mmHg 71%
    23:00 +14°C° 0 mm 4 mps 742 mmHg 71%

    18 October, Thursday

    Time Temperature Precipitation Wind Pressure Humidity
    00:00 +14°C° 0 mm 4 mps 742 mmHg 72%
    01:00 +14°C° 0 mm 4 mps 742 mmHg 73%
    02:00 +13°C° 0 mm 4 mps 742 mmHg 75%
    03:00 +13°C° 0 mm 4 mps 742 mmHg 76%
    04:00 +13°C° 0 mm 4 mps 742 mmHg 78%
    05:00 +13°C° 0 mm 4 mps 742 mmHg 80%
    06:00 +14°C° 0 mm 4 mps 742 mmHg 78%
    07:00 +14°C° 0 mm 5 mps 742 mmHg 75%
    08:00 +15°C° 0 mm 5 mps 742 mmHg 73%
    09:00 +17°C° 0 mm 5 mps 742 mmHg 66%
    10:00 +20°C° 0 mm 5 mps 742 mmHg 59%
    11:00 +21°C° 0 mm 4 mps 742 mmHg 53%
    12:00 +21°C° 0 mm 4 mps 742 mmHg 52%
    13:00 +22°C° 0 mm 4 mps 741 mmHg 51%
    14:00 +22°C° 0 mm 4 mps 741 mmHg 50%
    15:00 +20°C° 0 mm 4 mps 741 mmHg 56%
    16:00 +19°C° 0 mm 3 mps 741 mmHg 62%
    17:00 +17°C° 0 mm 3 mps 741 mmHg 69%
    18:00 +17°C° 0 mm 3 mps 741 mmHg 71%
    19:00 +16°C° 0 mm 3 mps 741 mmHg 73%
    20:00 +16°C° 0 mm 3 mps 741 mmHg 76%
    21:00 +16°C° 0 mm 2 mps 741 mmHg 74%
    22:00 +15°C° 0 mm 2 mps 741 mmHg 73%
    23:00 +15°C° 0 mm 2 mps 741 mmHg 71%

    19 October, Friday

    Time Temperature Precipitation Wind Pressure Humidity
    00:00 +15°C° 0 mm 1 mps 741 mmHg 71%
    01:00 +15°C° 0 mm 1 mps 741 mmHg 71%
    02:00 +15°C° 0 mm 1 mps 740 mmHg 71%
    03:00 +15°C° 0 mm 1 mps 740 mmHg 71%
    04:00 +14°C° 0 mm 1 mps 740 mmHg 72%
    05:00 +14°C° 0 mm 1 mps 740 mmHg 73%
    06:00 +15°C° 0 mm 1 mps 741 mmHg 69%
    07:00 +16°C° 0 mm 1 mps 741 mmHg 65%
    08:00 +18°C° 0 mm 1 mps 741 mmHg 62%
    09:00 +20°C° 0 mm 1 mps 741 mmHg 56%
    10:00 +22°C° 0 mm 1 mps 741 mmHg 51%
    11:00 +23°C° 0 mm 1 mps 741 mmHg 45%
    12:00 +24°C° 0 mm 2 mps 741 mmHg 45%
    13:00 +24°C° 0 mm 2 mps 741 mmHg 46%
    14:00 +24°C° 0 mm 2 mps 741 mmHg 46%
    15:00 +21°C° 0 mm 2 mps 740 mmHg 54%
    16:00 +20°C° 0 mm 2 mps 740 mmHg 62%
    17:00 +18°C° 0 mm 2 mps 740 mmHg 70%
    18:00 +17°C° 0 mm 2 mps 740 mmHg 74%
    19:00 +18°C° 0 mm 1 mps 740 mmHg 77%
    20:00 +16°C° 0 mm 1 mps 740 mmHg 81%
    21:00 +16°C° 0 mm 1 mps 740 mmHg 82%
    22:00 +16°C° 0 mm 1 mps 740 mmHg 84%
    23:00 +16°C° 0 mm 1 mps 740 mmHg 85%

    20 October, Saturday

    Time Temperature Precipitation Wind Pressure Humidity
    00:00 +15°C° 0 mm 2 mps 740 mmHg 86%
    01:00 +15°C° 0 mm 2 mps 740 mmHg 87%
    02:00 +15°C° 0 mm 2 mps 740 mmHg 89%
    03:00 +15°C° 0 mm 2 mps 740 mmHg 89%
    04:00 +14°C° 0 mm 2 mps 740 mmHg 90%
    05:00 +14°C° 0 mm 1 mps 740 mmHg 91%
    06:00 +15°C° 0 mm 2 mps 740 mmHg 86%
    07:00 +16°C° 0 mm 2 mps 740 mmHg 82%
    08:00 +17°C° 0 mm 2 mps 740 mmHg 78%
    09:00 +18°C° 0 mm 2 mps 740 mmHg 71%
    10:00 +20°C° 0 mm 3 mps 740 mmHg 64%
    11:00 +21°C° 0 mm 3 mps 740 mmHg 57%
    12:00 +21°C° 0 mm 4 mps 740 mmHg 57%
    13:00 +21°C° 0 mm 4 mps 740 mmHg 57%
    14:00 +21°C° 0 mm 4 mps 740 mmHg 57%
    15:00 +20°C° 0 mm 4 mps 740 mmHg 63%
    16:00 +18°C° 0 mm 3 mps 739 mmHg 69%
    17:00 +17°C° 0 mm 3 mps 739 mmHg 75%
    18:00 +16°C° 0 mm 3 mps 739 mmHg 78%
    19:00 +14°C° 0 mm 3 mps 739 mmHg 82%
    20:00 +14°C° 0 mm 3 mps 739 mmHg 85%
    21:00 +14°C° 0 mm 3 mps 739 mmHg 86%
    22:00 +13°C° 0 mm 3 mps 739 mmHg 86%
    23:00 +13°C° 0 mm 3 mps 739 mmHg 86%
    Show more